Regional Weather Roundup
Issued by NWS Kansas City/Pleasant Hill, MO

Home | Current Version | Previous Version | Graphics & Text | Print | Product List | Glossary Off
Versions: 1 2 3 4 5 6 7 8 9 10 11 12 13 14 15 16 17 18 19 20 21 22 23 24 25 26 27

000
ASUS43 KEAX 030310
RWREAX

WEATHER ROUNDUP FOR EASTERN KANSAS AND NORTHWEST MISSOURI
NATIONAL WEATHER SERVICE KANSAS CITY/PLEASANT HILL MO
1000 PM CDT MON MAY 02 2016

KSZ040-057-103>105-MOZ028-029-037-043-030400-
...KANSAS CITY METROPOLITAN AREA...

CITY           SKY/WX    TMP DP  RH WIND       PRES   REMARKS
K.C. INTL      PTCLDY    49  44  83 SW6       30.07R
K.C. DOWNTOWN  CLEAR     50  46  86 CALM      30.07R
LEES SUMMIT    CLEAR     50  46  86 W5        30.07S
OLATHE - IXD   CLEAR     49  45  86 W3        30.08S
OLATHE - OJC   CLEAR     48  43  82 CALM      30.08R
LAWRENCE       CLEAR     45  44  97 CALM      30.08R

$$

MOZ001>008-011>017-020>025-030>033-038>040-044>046-053-054-030400-
...NORTHERN AND CENTRAL MISSOURI...

CITY           SKY/WX    TMP DP  RH WIND       PRES   REMARKS
ST. JOSEPH     PTCLDY    51  46  83 CALM      30.06S
MOSBY          CLOUDY    52  50  93 CALM      30.07R
WARRENSBURG    CLEAR     50  46  87 CALM      30.06F
WHITEMAN AFB   NOT AVBL
CLINTON        PTCLDY    48  46  93 CALM      30.07S FOG
SEDALIA        CLOUDY    51  48  89 NW3       30.07R
WARSAW         NOT AVBL
CHILLICOTHE      N/A     48  46  93 CALM      30.07R
KIRKSVILLE     FOG       44  43  96 CALM      30.06S VSB 1/4

$$

MOZ041-047>049-056>058-063>065-088>090-097-030400-
...EASTERN AND SOUTHERN MISSOURI...

CITY           SKY/WX    TMP DP  RH WIND       PRES   REMARKS
ST. LOUIS INTL CLOUDY    54  49  83 NW5       30.04R
SPIRIT OF STL  CLOUDY    53  50  89 W3        30.04R
COLUMBIA       MOCLDY    49  48  97 NW7       30.05S FOG
JEFFERSON CITY MOCLDY    52  48  86 NW5       30.06R
ROLLA          MOCLDY    49  46  90 NW5       30.04R
OSAGE BEACH    CLOUDY    50  41  71 CALM      30.06S
SPRINGFIELD    CLOUDY    51  46  83 N5        30.06S
JOPLIN         CLOUDY    52  48  86 CALM      30.08S
WEST PLAINS    CLOUDY    53  44  71 N7        30.06R

$$

IAZ060-094-KSZ022-034>040-054-083-096-NEZ052-066-093-030400-
...KANSAS...SOUTHEAST NEBRASKA AND IOWA...

CITY           SKY/WX    TMP DP  RH WIND       PRES   REMARKS
TOPEKA         CLEAR     48  45  89 CALM      30.08R
MANHATTAN      CLOUDY    48  43  82 CALM      30.07R
EMPORIA        CLEAR     49  44  83 SE7       30.09R
CHANUTE        CLEAR     47  45  93 CALM      30.09R
WICHITA        CLEAR     51  41  68 CALM      30.09R
OMAHA          PTCLDY    50  42  74 SE3       30.04S
LINCOLN        PTCLDY    53  41  63 CALM      30.06S
FALLS CITY     CLEAR     52  41  66 CALM      30.05S
LAMONI         PTCLDY    50  42  74 CALM      30.06R
DES MOINES     PTCLDY    54  42  64 S5        30.06R

$$





USA.gov is the U.S. government's official web portal to all federal, state and local government web resources and services.